Home > Weather > Ponta Delgada > Past weeks

Flag for Portugal Weather for the Past 2 Weeks in Ponta Delgada, Azores, Portugal

Now
55 °F

Passing clouds.


Feels Like: 55 °F
Forecast: 55 / 60 °F
Wind: 5 mph from North

Location: Ponta Delgada / Nordela Acores

Current Time: Feb 14, 2016 at 3:40:32 AM

Latest Report: Feb 14, 2016 at 3:00 AM


Visibility: N/A

Pressure: 30.48 "Hg

Humidity: 82%

Dew point: 50 °F

Location of Ponta DelgadaLocation

Historic Weather in Ponta Delgada — Graph

°F

Ponta Delgada Temperature Yesterday

Maximum temperature yesterday: 63 °F (at 8:00 PM)
Minimum temperature yesterday: 59 °F (at 10:30 PM)
Average temperature yesterday: 61 °F

High & Low Weather Summary for the Past Weeks

 TemperatureHumidityPressure
High64 °F (Feb 1, 3:00 PM)100% (Jan 31, 10:00 PM)30.72 "Hg (Jan 31, 10:00 PM)
Low54 °F (Feb 2, 7:30 AM)63% (Jan 30, 8:30 AM)30.21 "Hg (Feb 6, 5:00 AM)
Average59 °F88%30.41 "Hg
* Reported Jan 30 2:00 AM — Feb 14 2:00 AM, Ponta Delgada, Weather by CustomWeather, © 2016

Note: Actual official high and low records may vary slightly from our data, if they occured in-between our weather recording intervals... More about our weather records

Advertising

Ponta Delgada Weather History for the Previous 24 Hours

 ConditionsComfort  
Time TempWeatherWind HumidityBarometerVisibility
2:00 AM
Sun, Feb 14
55 °FPassing clouds.8 mph82%30.48 "HgN/A
1:30 AM57 °FPassing clouds.8 mph77%30.48 "HgN/A
1:00 AM57 °FPassing clouds.6 mph72%30.48 "HgN/A
12:30 AM57 °FPassing clouds.14 mph77%30.48 "HgN/A
12:00 AM59 °FPassing clouds.8 mph77%30.48 "HgN/A
11:30 PM
Sat, Feb 13
59 °FPassing clouds.10 mph77%30.48 "HgN/A
11:00 PM59 °FPassing clouds.10 mph77%30.45 "HgN/A
10:30 PM59 °FPassing clouds.14 mph77%30.45 "HgN/A
10:00 PM61 °FPassing clouds.15 mph77%30.45 "HgN/A
9:30 PM61 °FPassing clouds.18 mph83%30.45 "HgN/A
8:30 PM61 °FPassing clouds.15 mph83%30.42 "HgN/A
8:00 PM63 °FPassing clouds.9 mph83%30.42 "HgN/A
7:30 PM61 °FPassing clouds.13 mph94%30.39 "HgN/A
7:00 PM61 °FPassing clouds.14 mph94%30.39 "HgN/A
6:30 PM61 °FPassing clouds.7 mph94%30.36 "HgN/A
6:00 PM61 °FScattered clouds.8 mph94%30.36 "Hg5 mi
5:30 PM61 °FPartly sunny.18 mph94%30.33 "Hg5 mi
5:00 PM61 °FBroken clouds.14 mph94%30.33 "Hg5 mi
4:30 PM61 °FBroken clouds.17 mph94%30.30 "Hg5 mi
4:00 PM61 °FBroken clouds.20 mph100%30.30 "Hg4 mi
3:30 PM61 °FBroken clouds.17 mph100%30.27 "Hg4 mi
3:00 PM61 °FBroken clouds.17 mph100%30.27 "Hg4 mi
2:30 PM61 °FBroken clouds.15 mph100%30.27 "Hg4 mi
2:00 PM61 °FBroken clouds.16 mph100%30.27 "Hg4 mi
1:30 PM61 °FFog.17 mph100%30.27 "Hg3 mi
1:00 PM61 °FFog.18 mph100%30.27 "Hg2 mi
12:30 PM61 °FFog.23 mph100%30.27 "Hg2 mi
12:00 PM61 °FFog.20 mph100%30.27 "Hg3 mi
11:30 AM61 °FFog.21 mph100%30.27 "Hg2 mi
11:00 AM61 °FFog.17 mph100%30.27 "Hg2 mi
10:30 AM61 °FFog.17 mph100%30.27 "Hg2 mi
10:00 AM61 °FFog.15 mph94%30.27 "Hg2 mi
9:30 AM61 °FFog.15 mph100%30.27 "Hg3 mi
9:00 AM61 °FBroken clouds.16 mph94%30.27 "Hg5 mi
8:30 AM61 °FBroken clouds.16 mph94%30.24 "Hg5 mi
8:00 AM61 °FPartly sunny.20 mph94%30.24 "Hg5 mi
7:30 AM61 °FPassing clouds.14 mph94%30.24 "Hg6 mi
7:00 AM61 °FPassing clouds.14 mph94%30.24 "Hg5 mi
6:30 AM61 °FPassing clouds.13 mph94%30.24 "Hg5 mi
6:00 AM61 °FPassing clouds.15 mph94%30.24 "Hg6 mi
5:30 AM61 °FPartly cloudy.17 mph94%30.24 "HgN/A
5:00 AM61 °FPassing clouds.16 mph94%30.24 "HgN/A
4:30 AM61 °FPassing clouds.17 mph94%30.21 "HgN/A
4:00 AM61 °FPassing clouds.16 mph94%30.24 "HgN/A
3:30 AM61 °FPassing clouds.15 mph94%30.24 "HgN/A
3:00 AM61 °FPassing clouds.16 mph94%30.24 "HgN/A
Weather by CustomWeather, © 2016

See weather overviewHow to use our weather pages